• In Germany
  • List of Countries
  • For 7 days
  • Water Temperature
  • Satellite Maps
  • Weather Map
  • Weather Widgets
  • user-avatar
    Login

    Hourly Weather Newberg

    Today, 21 January, Sunday

    Time Temperature Precipitation Wind Pressure Humidity
    00:00 +4°C° 0 mm 3 mps 748 mmHg 76%
    01:00 +4°C° 0 mm 4 mps 747 mmHg 74%
    02:00 +4°C° 0 mm 4 mps 747 mmHg 74%
    03:00 +5°C° 0 mm 4 mps 746 mmHg 73%
    04:00 +5°C° 0 mm 4 mps 746 mmHg 72%
    05:00 +5°C° 0.6 mm 4 mps 745 mmHg 75%
    06:00 +5°C° 0.6 mm 4 mps 744 mmHg 77%
    07:00 +5°C° 0.6 mm 4 mps 743 mmHg 79%
    08:00 +5°C° 0.6 mm 4 mps 743 mmHg 80%
    09:00 +5°C° 0.6 mm 4 mps 743 mmHg 81%
    10:00 +5°C° 0.6 mm 4 mps 743 mmHg 82%
    11:00 +5°C° 1.3 mm 4 mps 743 mmHg 84%
    12:00 +6°C° 1.3 mm 4 mps 744 mmHg 86%
    13:00 +6°C° 1.3 mm 4 mps 744 mmHg 88%
    14:00 +7°C° 0.6 mm 3 mps 745 mmHg 87%
    15:00 +7°C° 0.6 mm 3 mps 745 mmHg 86%
    16:00 +7°C° 0.6 mm 3 mps 745 mmHg 85%
    17:00 +7°C° 0.1 mm 3 mps 746 mmHg 87%
    18:00 +6°C° 0.1 mm 2 mps 747 mmHg 89%
    19:00 +5°C° 0.1 mm 2 mps 748 mmHg 91%
    20:00 +5°C° 0.2 mm 2 mps 748 mmHg 92%
    21:00 +4°C° 0.2 mm 2 mps 749 mmHg 92%
    22:00 +4°C° 0.2 mm 2 mps 749 mmHg 93%
    23:00 +4°C° 0.3 mm 2 mps 749 mmHg 93%

    Tomorrow, 22 January, Monday

    Time Temperature Precipitation Wind Pressure Humidity
    00:00 +4°C° 0.3 mm 2 mps 750 mmHg 93%
    01:00 +4°C° 0.3 mm 2 mps 750 mmHg 93%
    02:00 +4°C° 0.4 mm 2 mps 750 mmHg 93%
    03:00 +4°C° 0.4 mm 2 mps 751 mmHg 93%
    04:00 +4°C° 0.4 mm 3 mps 751 mmHg 93%
    05:00 +4°C° 0.5 mm 3 mps 751 mmHg 93%
    06:00 +4°C° 0.5 mm 3 mps 752 mmHg 93%
    07:00 +4°C° 0.5 mm 3 mps 752 mmHg 93%
    08:00 +4°C° 0.4 mm 3 mps 753 mmHg 92%
    09:00 +5°C° 0.4 mm 3 mps 753 mmHg 91%
    10:00 +5°C° 0.4 mm 3 mps 753 mmHg 90%
    11:00 +7°C° 0.3 mm 3 mps 753 mmHg 89%
    12:00 +7°C° 0.3 mm 3 mps 753 mmHg 87%
    13:00 +8°C° 0.3 mm 3 mps 753 mmHg 85%
    14:00 +8°C° 0.3 mm 2 mps 753 mmHg 86%
    15:00 +8°C° 0.3 mm 2 mps 753 mmHg 86%
    16:00 +8°C° 0.3 mm 2 mps 753 mmHg 86%
    17:00 +7°C° 0.2 mm 2 mps 753 mmHg 88%
    18:00 +7°C° 0.2 mm 1 mps 753 mmHg 90%
    19:00 +6°C° 0.2 mm 1 mps 753 mmHg 93%
    20:00 +6°C° 0 mm 1 mps 753 mmHg 93%
    21:00 +6°C° 0 mm 1 mps 753 mmHg 93%
    22:00 +6°C° 0 mm 1 mps 753 mmHg 93%
    23:00 +5°C° 0 mm 1 mps 752 mmHg 92%

    Day after tomorrow, 23 January, Tuesday

    Time Temperature Precipitation Wind Pressure Humidity
    00:00 +5°C° 0 mm 1 mps 752 mmHg 92%
    01:00 +5°C° 0 mm 1 mps 751 mmHg 91%
    02:00 +5°C° 0.1 mm 1 mps 751 mmHg 90%
    03:00 +5°C° 0.1 mm 1 mps 750 mmHg 89%
    04:00 +5°C° 0.1 mm 1 mps 749 mmHg 89%
    05:00 +5°C° 1.2 mm 1 mps 749 mmHg 89%
    06:00 +5°C° 1.2 mm 1 mps 748 mmHg 90%
    07:00 +5°C° 1.2 mm 1 mps 747 mmHg 91%
    08:00 +5°C° 1.3 mm 2 mps 747 mmHg 91%
    09:00 +5°C° 1.3 mm 2 mps 746 mmHg 90%
    10:00 +5°C° 1.3 mm 2 mps 746 mmHg 90%
    11:00 +5°C° 1.2 mm 2 mps 745 mmHg 91%
    12:00 +6°C° 1.2 mm 2 mps 745 mmHg 91%
    13:00 +6°C° 1.2 mm 2 mps 744 mmHg 92%
    14:00 +7°C° 1 mm 2 mps 743 mmHg 92%
    15:00 +7°C° 1 mm 3 mps 743 mmHg 93%
    16:00 +7°C° 1 mm 3 mps 742 mmHg 93%
    17:00 +7°C° 0.5 mm 3 mps 742 mmHg 92%
    18:00 +8°C° 0.5 mm 3 mps 741 mmHg 92%
    19:00 +8°C° 0.5 mm 3 mps 741 mmHg 92%
    20:00 +8°C° 1.2 mm 3 mps 741 mmHg 93%
    21:00 +8°C° 1.2 mm 2 mps 741 mmHg 93%
    22:00 +8°C° 1.2 mm 2 mps 741 mmHg 94%
    23:00 +8°C° 1.6 mm 2 mps 740 mmHg 95%

    24 January, Wednesday

    Time Temperature Precipitation Wind Pressure Humidity
    00:00 +8°C° 1.6 mm 2 mps 740 mmHg 96%
    01:00 +9°C° 1.6 mm 1 mps 739 mmHg 96%
    02:00 +8°C° 0.9 mm 2 mps 739 mmHg 95%
    03:00 +8°C° 0.9 mm 2 mps 739 mmHg 94%
    04:00 +8°C° 0.9 mm 3 mps 738 mmHg 92%
    05:00 +8°C° 0.2 mm 2 mps 738 mmHg 93%
    06:00 +7°C° 0.2 mm 2 mps 737 mmHg 94%
    07:00 +7°C° 0.2 mm 2 mps 737 mmHg 95%
    08:00 +7°C° 0.8 mm 3 mps 737 mmHg 93%
    09:00 +7°C° 0.8 mm 3 mps 737 mmHg 92%
    10:00 +7°C° 0.8 mm 3 mps 737 mmHg 91%
    11:00 +7°C° 0.4 mm 4 mps 738 mmHg 87%
    12:00 +7°C° 0.4 mm 4 mps 738 mmHg 83%
    13:00 +7°C° 0.4 mm 4 mps 738 mmHg 79%
    14:00 +7°C° 0.2 mm 4 mps 738 mmHg 79%
    15:00 +6°C° 0.2 mm 4 mps 738 mmHg 78%
    16:00 +7°C° 0.2 mm 3 mps 738 mmHg 77%
    17:00 +5°C° 0.2 mm 4 mps 738 mmHg 79%
    18:00 +5°C° 0.2 mm 4 mps 739 mmHg 80%
    19:00 +4°C° 0.2 mm 4 mps 739 mmHg 82%
    20:00 +4°C° 0.6 mm 4 mps 739 mmHg 83%
    21:00 +3°C° 0.6 mm 4 mps 740 mmHg 85%
    22:00 +3°C° 0.6 mm 4 mps 740 mmHg 86%
    23:00 +3°C° 0.1 mm 4 mps 740 mmHg 87%

    25 January, Thursday

    Time Temperature Precipitation Wind Pressure Humidity
    00:00 +3°C° 0.1 mm 4 mps 740 mmHg 87%
    01:00 +2°C° 0.1 mm 3 mps 740 mmHg 88%
    02:00 +2°C° 0.1 mm 3 mps 740 mmHg 88%
    03:00 +2°C° 0.1 mm 3 mps 740 mmHg 87%
    04:00 +2°C° 0.1 mm 3 mps 740 mmHg 87%
    05:00 +2°C° 0.1 mm 3 mps 740 mmHg 86%
    06:00 +2°C° 0.1 mm 3 mps 740 mmHg 86%
    07:00 +1°C° 0.1 mm 4 mps 740 mmHg 85%
    08:00 +1°C° 0.5 mm 4 mps 740 mmHg 84%
    09:00 +3°C° 0.5 mm 4 mps 740 mmHg 84%
    10:00 +2°C° 0.5 mm 5 mps 741 mmHg 83%
    11:00 +4°C° 0.4 mm 4 mps 741 mmHg 83%
    12:00 +4°C° 0.4 mm 4 mps 741 mmHg 83%
    13:00 +5°C° 0.4 mm 4 mps 742 mmHg 83%
    14:00 +5°C° 0.8 mm 3 mps 742 mmHg 85%
    15:00 +4°C° 0.8 mm 3 mps 743 mmHg 86%
    16:00 +4°C° 0.8 mm 3 mps 743 mmHg 88%
    17:00 +4°C° 0.8 mm 3 mps 744 mmHg 89%
    18:00 +4°C° 0.8 mm 2 mps 745 mmHg 90%
    19:00 +4°C° 0.8 mm 2 mps 745 mmHg 91%
    20:00 +3°C° 0.7 mm 2 mps 746 mmHg 92%
    21:00 +3°C° 0.7 mm 2 mps 747 mmHg 92%
    22:00 +3°C° 0.7 mm 2 mps 747 mmHg 92%
    23:00 +3°C° 0.6 mm 2 mps 748 mmHg 92%

    26 January, Friday

    Time Temperature Precipitation Wind Pressure Humidity
    00:00 +3°C° 0.6 mm 2 mps 749 mmHg 92%
    01:00 +2°C° 0.6 mm 2 mps 749 mmHg 92%
    02:00 +2°C° 0.2 mm 2 mps 750 mmHg 92%
    03:00 +1°C° 0.2 mm 2 mps 750 mmHg 92%
    04:00 +1°C° 0.2 mm 2 mps 751 mmHg 92%
    05:00 +1°C° 0.1 mm 2 mps 751 mmHg 92%
    06:00 +1°C° 0.1 mm 2 mps 752 mmHg 92%
    07:00 +1°C° 0.1 mm 2 mps 752 mmHg 92%
    08:00 +2°C° 0.1 mm 2 mps 753 mmHg 90%
    09:00 +2°C° 0.1 mm 2 mps 753 mmHg 89%
    10:00 +3°C° 0.1 mm 2 mps 754 mmHg 87%
    11:00 +4°C° 0.2 mm 2 mps 754 mmHg 85%
    12:00 +5°C° 0.2 mm 2 mps 754 mmHg 82%
    13:00 +5°C° 0.2 mm 3 mps 754 mmHg 79%
    14:00 +5°C° 0.2 mm 2 mps 754 mmHg 81%
    15:00 +5°C° 0.2 mm 2 mps 755 mmHg 83%
    16:00 +5°C° 0.2 mm 2 mps 755 mmHg 84%
    17:00 +4°C° 0.1 mm 2 mps 755 mmHg 86%
    18:00 +4°C° 0.1 mm 2 mps 755 mmHg 87%
    19:00 +3°C° 0.1 mm 2 mps 755 mmHg 89%
    20:00 +3°C° 0.1 mm 2 mps 755 mmHg 88%
    21:00 +3°C° 0.1 mm 2 mps 755 mmHg 88%
    22:00 +2°C° 0.1 mm 2 mps 755 mmHg 87%
    23:00 +2°C° 0.5 mm 2 mps 755 mmHg 87%
    Show more